This is the latest recevied weather packets stored in our database for station/object K5GTX. If no packets are shown the sender has not sent any weather packets the latest 10 day(s).
| Time | Temp. | Humidity | Pressure | Rain* | Wind** | Luminosity | Snow |
|---|---|---|---|---|---|---|---|
| 1777576108 | 16.67° C | 99% | 1020 hPa | 0 mm | - | 89 W/m² | - |
| 1777575803 | 16.67° C | 99% | 1019.5 hPa | 0 mm | - | 98 W/m² | - |
| 1777575500 | 16.67° C | 99% | 1018.6 hPa | 0 mm | - | 188 W/m² | - |
| 1777575196 | 16.67° C | 99% | 1018.3 hPa | 0 mm | - | 174 W/m² | - |
| 1777574892 | 16.67° C | 99% | 1018.8 hPa | 0 mm | - | 125 W/m² | - |
| 1777574589 | 16.67° C | 99% | 1019 hPa | 0 mm | - | 125 W/m² | - |
| 1777574285 | 16.67° C | 99% | 1019.5 hPa | 0 mm | - | 130 W/m² | - |
| 1777573981 | 16.67° C | 99% | 1019.8 hPa | 0 mm | - | 158 W/m² | - |
| 1777573675 | 17.22° C | 99% | 1020.3 hPa | 0 mm | - | 161 W/m² | - |
| 1777573372 | 16.67° C | 99% | 1020.4 hPa | 0 mm | - | 157 W/m² | - |
| 1777573067 | 16.67° C | 99% | 1020.5 hPa | 0 mm | - | 160 W/m² | - |
| 1777572765 | 16.67° C | 99% | 1020.4 hPa | 0 mm | - | 198 W/m² | - |
| 1777572459 | 16.67° C | 99% | 1020.5 hPa | 0 mm | - | 170 W/m² | - |
| 1777572156 | 16.11° C | 99% | 1020.5 hPa | 0 mm | - | 137 W/m² | - |
| 1777571851 | 16.11° C | 99% | 1020.7 hPa | 0 mm | - | 37 W/m² | - |
| 1777571547 | 16.11° C | 99% | 1021.2 hPa | 0 mm | - | 40 W/m² | - |
| 1777571244 | 16.11° C | 99% | 1021.3 hPa | 0 mm | - | 76 W/m² | - |
| 1777570940 | 16.11° C | 99% | 1021.4 hPa | 0 mm | - | 64 W/m² | - |
| 1777570636 | 16.11° C | 99% | 1021.2 hPa | 0 mm | - | 66 W/m² | - |
| 1777570333 | 16.11° C | 99% | 1021.6 hPa | 0 mm | - | 67 W/m² | - |
| 1777570029 | 16.67° C | 99% | 1021.8 hPa | 0 mm | - | 69 W/m² | - |
| 1777569724 | 16.67° C | 99% | 1021.5 hPa | 0 mm | - | 88 W/m² | - |
| 1777569420 | 16.67° C | 99% | 1021.6 hPa | 0 mm | - | 82 W/m² | - |
| 1777569116 | 16.67° C | 99% | 1022 hPa | 0 mm | - | 26 W/m² | - |
| 1777568814 | 16.67° C | 99% | 1022.3 hPa | 0 mm | - | 78 W/m² | - |
* Rain latest hour (hover to see other rain measurements)
** Current wind speed in m/s (hover to see current wind gust speed)